{"data":{"norad_id":56840,"intl_designator":"2023-079T","name":"STARLINK-30073","alt_names":[],"object_type":"PAYLOAD","status":"ACTIVE","operator":null,"country":"US","launch_date":"2023-06-04","launch_site_code":"AFETR","launch_vehicle":null,"mission":null,"orbit_class":"UNKNOWN","rcs_meters":null,"size_class":null,"mass_kg":null,"dimensions":null,"purposes":["comms"],"wikipedia_slug":null,"has_3d_model":false,"image_url":null,"decayed_at":null,"tle_current":{"epoch":"2026-09-20T22:00:03.000096Z","epoch_age_seconds":81594,"freshness":"FRESH","line1":"1 56840U 23079T   26263.91670139  .00032682  00000+0  11925-2 0  9999","line2":"2 56840  43.0022 269.8387 0001317 264.5986   1.9667 15.27564254  5860","mean_motion":15.27564254,"eccentricity":0.0001317,"inclination_deg":43.0022,"raan_deg":269.8387,"arg_perigee_deg":264.5986,"mean_anomaly_deg":1.9667,"bstar":0.0011925,"rev_number":586,"period_min":94.267720407131,"perigee_km":482.19262121481,"apogee_km":483.99987005171,"semimajor_km":6861.2332456333,"source":"CELESTRAK","updated_at":"2026-09-21T09:00:33.517882Z"}}}